Content
SEND FEEDBACK

Daily
Averages
Monthly
Summary
United States of America

ST. LOUIS, MISSOURI


Home > North America > United States > Missouri
Elevation: 163 meters     Latitude: 38 45N     Longitude: 090 22W

WEATHER
 
SELECT A DAY
Number of Records: 196,619;   Date Range: 1/1/95 - 9/16/14
 
SHARE

PRINT THIS DATA

[ ← Previous Day ]
WEATHER ALMANAC - 12 FEBRUARY, 2013
[ Next Day → ]
[ °F ]   °C
Weather ElementAverageHighLow
Temperature1.8 °C6.7 °C (1:54 pm)-4.4 °C (5:54 am)
Dewpoint-3.4 °C-0.6 °C (9:54 pm)-6.1 °C (5:54 am)
Humidity70.7 %89 % (7:54 am)47 % (2:54 pm)
Barometer1019 hPa1022.7 hPa (8:54 am)1014.9 hPa (9:54 pm)
Wind Speed1.8 km/h9.3 km/h (2:54 pm)
Weather ElementAverage
Visibility16.1 km
Wind DirectionNNE (30.4 °)

Weather ElementTotal
Precipitation---
Heating Degree Days17.2 (Base 18.3)
Averaged from 23 records on 12 February, 2013
WEATHER CONDITIONS BREAKOUT
WIND DIRECTION BREAKOUT
WEATHER BY HOUR - 12 FEBRUARY, 2013
[ °F ]   °C
Local TimeTemperatureDewpointHumidityBarometerVisibilityWind DirectionWind SpeedGust SpeedPrecipitationEventsConditions
1:54 AM-2.8 °C-5 °C85 %1021.7 hPa16.1 kmCalmClear
2:54 AM-3.9 °C-5.6 °C88 %1022.4 hPa16.1 kmWSW (250°)5.6 km/hClear
3:54 AM-3.3 °C-5.6 °C84 %1021.7 hPa16.1 kmCalmClear
4:54 AM-3.9 °C-5.6 °C88 %1021.7 hPa16.1 kmCalmClear
5:54 AM-4.4 °C-6.1 °C88 %1021.7 hPa16.1 kmCalmClear
6:54 AM-4.4 °C-6.1 °C88 %1022 hPa16.1 kmCalmScattered Clouds
7:54 AM-1.7 °C-3.3 °C89 %1022.4 hPa16.1 kmCalmClear
8:54 AM0 °C-2.2 °C85 %1022.7 hPa16.1 kmCalmClear
9:54 AM2.8 °C-2.2 °C70 %1021 hPa16.1 kmCalmMostly Cloudy
10:54 AM4.4 °C-3.3 °C58 %1021 hPa16.1 kmVariable5.6 km/hOvercast
11:54 AM6.1 °C-2.8 °C53 %1020.3 hPa16.1 kmNE (50°)7.4 km/hClear
12:54 PM6.1 °C-3.9 °C49 %1020.3 hPa16.1 kmCalmMostly Cloudy
1:54 PM6.7 °C-3.3 °C49 %1018.6 hPa16.1 kmNNE (30°)7.4 km/hOvercast
2:54 PM6.7 °C-3.9 °C47 %1017.9 hPa16.1 kmNNE (20°)9.3 km/hClear
3:54 PM6.7 °C-3.9 °C47 %1016.9 hPa16.1 kmNorth (350°)5.6 km/hOvercast
4:54 PM6.1 °C-3.9 °C49 %1016.9 hPa16.1 kmCalmOvercast
5:54 PM3.9 °C-2.8 °C62 %1016.3 hPa16.1 kmCalmMostly Cloudy
6:54 PM2.8 °C-2.2 °C70 %1015.6 hPa16.1 kmCalmMostly Cloudy
7:54 PM3.3 °C-2.8 °C65 %1015.2 hPa16.1 kmCalmOvercast
8:54 PM2.8 °C-1.7 °C73 %1015.2 hPa16.1 kmCalmOvercast
9:54 PM2.8 °C-0.6 °C79 %1014.9 hPa16.1 kmCalmOvercast
10:54 PM2.2 °C-1.1 °C79 %1015.2 hPa16.1 kmCalmOvercast
11:54 PM1.7 °C-1.1 °C82 %1015.2 hPa16.1 kmCalmOvercast
Hourly data recorded from KSUS, located 0 kilometers away from St. Louis, Missouri







STORIES FROM OUR PARTNERS